RH
64 60 57 55 52 51 50 48 45 40 37 35 34 34 33 33 33 33 32 33 33 33 33 33 32 31 30 30 30 30 29 29 29 30 30 30 30 31 32 34 35 35 35 33 31 32 31 31 32 28 23 21 18 17 16 15 15 16 18 19 18 21 25 27 29 28 23 22 24 23 21 24 24 22 22 23 22 18 14 16 17 14 14 19 23
61 58 54 52 51 49 47 42 37 32 31 32 34 34 34 34 33 32 33 35 36 35 35 36 35 32 31 30 30 30 29 30 31 31 31 34 35 36 37 38 38 36 34 32 32 32 32 31 31 29 24 19 17 16 16 16 16 17 19 20 20 21 23 26 27 29 27 24 24 25 24 25 23 21 22 23 22 21 18 17 20 20 16 14 19
59 56 53 53 51 46 41 35 32 31 31 33 35 35 34 34 34 33 33 35 36 35 35 35 34 31 30 29 29 30 31 31 32 31 31 35 39 41 41 40 37 34 33 32 32 32 31 31 31 27 21 17 17 17 17 18 20 21 20 20 21 21 22 25 27 28 28 27 26 26 26 25 24 23 22 21 21 24 24 19 17 18 16 13 15
57 56 55 53 47 40 35 32 31 32 34 35 36 36 35 35 35 34 33 34 35 35 33 31 30 29 29 29 30 32 33 32 33 32 30 32 37 39 39 38 34 32 33 32 32 32 30 30 29 23 18 18 19 19 19 20 20 20 19 18 20 22 22 25 27 27 28 28 27 27 27 27 27 25 24 23 23 24 24 21 17 15 17 19 20
57 56 55 50 43 36 32 31 32 33 34 36 37 37 37 37 35 34 33 33 34 35 33 29 28 28 28 30 32 33 34 33 33 33 30 30 36 40 37 35 33 32 33 33 32 31 29 28 26 20 18 21 23 22 20 20 19 17 17 17 18 21 22 24 27 28 27 27 27 27 27 26 26 26 25 25 25 24 23 23 22 20 18 17 17
58 56 51 45 39 34 32 32 33 34 35 37 37 37 38 37 35 34 33 31 30 29 29 28 28 30 31 33 35 34 34 35 34 32 28 25 32 37 33 33 34 33 32 32 29 26 24 24 22 20 21 23 22 22 20 18 17 16 16 17 18 21 24 26 28 28 27 27 27 26 27 27 26 26 26 25 25 25 24 24 25 24 21 17 13
58 53 46 41 37 34 33 33 34 35 36 37 37 38 38 37 36 37 37 36 33 30 30 31 32 34 35 35 36 36 36 35 31 27 23 20 23 30 33 34 34 32 30 29 26 22 20 21 21 21 23 23 21 21 20 17 17 17 17 18 20 23 26 27 28 28 28 28 28 28 28 28 28 28 28 27 26 26 26 26 26 26 25 23 19
57 51 45 42 39 35 34 34 35 36 36 36 37 37 37 36 35 35 36 37 38 39 39 37 36 36 36 36 37 37 35 31 25 21 18 16 18 25 33 36 32 29 28 26 24 23 21 20 22 23 22 21 21 20 18 17 17 17 17 19 22 26 28 29 29 29 30 30 31 32 32 32 32 31 31 32 31 28 28 28 27 26 26 26 25
57 51 47 43 39 36 36 37 38 37 37 37 38 38 36 34 32 31 32 34 39 45 46 41 37 37 38 38 37 33 28 23 19 16 15 16 18 23 30 33 29 26 25 25 24 23 22 22 21 23 22 20 20 19 17 17 17 17 18 21 25 28 29 30 30 31 33 34 34 35 36 36 36 35 35 35 35 34 32 30 29 28 27 27 26
57 51 46 42 38 37 38 39 39 39 38 37 37 36 32 29 28 30 32 34 36 41 44 40 38 37 36 34 30 25 21 17 16 14 15 18 19 22 26 28 27 25 23 23 22 21 22 21 19 20 21 21 21 18 16 17 16 16 20 24 28 31 30 31 33 33 35 37 38 38 39 38 38 39 39 38 38 37 36 35 33 31 29 28 26
56 49 45 42 40 40 41 43 42 40 38 37 34 31 28 28 30 31 33 35 34 37 42 42 37 33 30 26 22 19 16 15 15 16 17 18 18 19 23 25 26 24 22 22 22 21 22 20 17 20 23 22 21 18 16 16 16 16 20 25 29 31 32 32 33 34 36 38 39 40 41 41 41 41 41 40 40 39 39 38 36 34 33 31 28
52 48 45 45 45 45 45 45 42 40 40 37 32 31 31 33 33 33 34 35 33 35 40 39 33 27 24 21 17 15 15 15 17 17 16 15 16 19 23 25 25 24 22 22 22 22 22 19 18 21 22 21 21 19 17 17 16 16 20 27 30 31 32 34 34 35 37 39 42 47 49 49 48 47 48 47 45 43 42 41 39 38 36 34 32
50 49 48 50 50 49 47 44 43 44 41 35 33 36 38 37 36 35 35 34 31 30 32 33 29 24 20 17 15 14 16 16 17 15 13 12 14 19 24 25 25 24 22 21 21 22 22 20 20 21 20 18 19 19 17 17 17 17 22 29 31 31 32 34 35 38 41 45 49 53 56 57 55 54 55 54 52 49 47 45 44 43 39 36 34
52 51 51 52 51 50 49 47 45 42 38 35 39 43 41 38 37 35 33 30 29 28 27 28 28 23 17 15 15 16 17 16 15 13 11 11 13 18 24 25 24 24 22 20 21 22 22 21 21 21 19 17 17 18 18 18 20 21 25 28 30 31 31 33 37 43 47 52 55 57 60 64 64 62 61 60 59 56 53 49 47 47 44 41 38
54 53 52 51 51 51 50 46 42 41 43 47 50 49 44 40 37 34 31 29 28 26 24 23 24 23 19 17 17 17 16 14 13 10 10 11 11 13 20 24 24 24 22 20 20 22 22 21 21 21 20 16 15 17 19 20 22 25 25 27 29 31 32 35 41 47 51 57 62 65 67 71 73 72 69 68 66 63 60 55 52 50 47 44 41
55 53 52 52 52 50 47 44 45 50 55 55 51 46 43 39 36 33 31 29 26 24 22 19 18 22 23 21 18 17 15 11 10 9 9 10 9 9 14 20 22 23 23 20 20 22 22 21 21 22 20 16 15 17 19 22 25 25 24 26 28 30 33 38 44 49 55 61 66 71 74 77 79 79 76 75 73 70 67 63 60 57 52 46 44
54 53 53 52 51 50 49 50 52 54 54 49 41 39 39 39 38 35 33 31 28 23 20 16 16 20 23 21 17 15 12 10 9 9 8 8 8 7 9 14 19 23 24 22 21 22 22 21 23 22 18 15 15 17 20 23 25 25 25 25 27 30 34 39 46 52 58 63 69 77 82 84 83 82 81 80 80 79 75 71 69 66 59 52 48
53 53 53 52 52 52 53 53 51 49 48 42 38 40 42 42 40 38 36 35 32 27 21 18 18 19 19 18 15 12 10 9 9 8 8 8 8 7 8 11 15 21 23 23 23 23 22 22 23 22 17 14 15 17 20 24 25 25 25 25 27 30 34 39 47 53 58 65 75 84 87 86 84 83 83 84 85 87 83 78 76 74 68 62 57
53 54 55 55 55 54 53 51 48 46 44 40 38 41 42 41 40 39 36 34 32 30 28 25 23 21 19 17 14 11 9 9 9 8 8 8 8 8 8 10 13 16 20 23 25 23 22 23 23 20 16 14 15 17 20 23 24 24 24 26 27 30 35 41 47 53 58 67 79 87 87 86 86 85 85 87 89 90 88 83 80 78 74 70 67
55 58 58 57 56 54 52 48 45 44 40 38 40 41 42 43 43 39 36 33 31 30 31 31 30 27 23 19 16 14 12 9 9 9 8 8 8 8 9 9 11 12 15 21 25 25 24 23 20 18 16 15 16 18 20 22 23 23 24 26 28 30 35 42 48 53 60 71 83 89 89 88 87 86 86 88 89 89 89 87 83 81 79 77 76
60 61 59 57 56 55 51 45 44 43 39 38 41 43 43 44 41 37 32 30 30 32 33 34 33 31 27 23 20 19 17 13 10 9 8 9 9 9 9 9 10 11 12 17 24 27 25 21 17 17 18 18 18 19 21 22 23 23 24 25 27 30 35 41 47 53 63 74 84 90 91 89 87 86 87 90 91 92 92 91 89 88 87 85 81
62 61 59 58 58 54 48 43 43 42 39 39 42 42 42 42 38 33 29 27 30 34 34 33 32 30 27 25 23 22 21 18 13 9 9 9 9 9 9 9 10 11 12 17 24 28 24 19 18 20 21 20 20 20 21 22 22 22 23 24 26 29 33 39 45 53 64 74 82 89 90 89 88 86 87 92 93 93 94 94 92 90 86 79 70
63 61 60 60 59 53 46 43 43 41 39 41 43 42 42 41 37 32 30 30 33 34 32 31 29 26 23 23 23 23 23 21 16 10 9 10 9 9 10 9 10 12 13 18 24 25 23 22 22 23 22 22 22 20 20 21 22 22 22 22 25 28 31 36 43 52 64 72 79 87 90 90 89 87 88 91 93 93 95 94 91 91 89 78 63
63 62 62 61 59 52 45 42 43 42 40 41 41 40 40 39 35 33 34 34 34 33 31 29 26 22 21 21 22 22 23 22 17 11 9 10 10 10 10 10 11 12 14 19 22 22 23 24 24 23 23 23 22 21 21 20 20 21 21 21 23 25 29 34 41 51 62 69 76 86 92 92 91 91 91 94 96 97 98 96 93 93 93 83 67
63 62 62 61 57 50 44 43 43 42 41 43 43 42 40 37 34 34 35 34 33 31 28 25 22 21 21 21 21 22 22 23 18 11 10 11 10 11 11 11 11 12 14 18 21 23 25 25 24 25 25 24 23 22 22 21 20 20 20 20 21 23 27 33 39 48 59 67 74 85 93 94 94 96 97 98 99 99 99 97 95 94 94 90 74
63 64 63 60 54 48 45 44 45 44 45 47 45 42 40 37 34 34 35 34 32 30 26 23 21 20 20 20 21 22 22 21 16 11 11 12 11 12 12 12 12 13 15 18 21 23 25 26 25 25 25 25 24 22 22 22 20 20 20 19 19 21 25 30 36 45 56 64 72 84 93 95 96 98 100 100 99 100 99 97 96 95 97 97 83
65 65 63 58 52 48 46 46 46 46 48 48 44 40 39 37 35 35 35 33 31 28 24 22 20 20 20 20 20 21 22 19 14 11 12 12 12 13 13 13 14 14 15 19 21 23 26 26 26 26 25 26 25 23 22 22 21 20 20 19 18 19 22 26 33 43 53 60 69 82 92 95 96 98 100 100 99 101 99 97 96 95 98 102 92
66 64 59 54 50 49 48 47 47 48 49 47 42 39 38 36 35 36 35 33 31 28 24 22 21 22 22 20 20 22 22 17 13 13 14 13 14 15 14 15 15 16 17 20 22 24 26 27 26 26 26 26 26 24 23 23 22 21 20 18 18 19 20 23 29 38 47 56 64 75 86 94 96 98 100 100 99 100 100 97 96 95 94 98 92
65 61 55 51 50 51 51 49 49 50 49 46 40 38 37 36 36 36 35 32 30 28 24 21 19 21 22 19 17 18 18 15 13 14 14 15 16 16 16 16 17 18 20 22 24 26 27 27 27 26 26 26 26 25 25 24 23 22 19 18 18 18 19 20 25 31 41 50 57 66 78 89 96 98 99 100 99 100 100 98 98 97 94 89 81
63 57 52 51 52 53 52 51 50 51 48 43 39 38 38 38 37 36 32 29 26 24 21 17 14 15 17 15 13 14 15 14 15 15 15 16 16 17 18 19 19 21 23 24 25 27 28 27 26 26 26 26 26 25 26 26 25 23 20 18 18 19 18 19 22 27 35 44 51 58 68 82 94 98 98 99 99 99 100 98 98 100 99 93 83
60 55 52 52 54 55 53 50 50 50 46 42 40 39 38 38 37 32 26 20 17 16 15 13 12 12 13 13 13 15 15 14 15 16 16 17 18 18 19 21 22 25 27 26 26 28 28 28 27 27 26 27 27 26 26 26 26 25 22 19 19 19 19 19 20 24 31 37 44 50 58 70 86 96 99 99 99 99 99 98 97 98 100 99 94
59 55 53 53 55 56 52 49 49 47 42 41 42 41 39 37 34 28 20 14 13 12 12 12 12 12 13 14 14 15 15 16 16 17 17 18 18 19 21 24 26 27 29 28 27 28 29 29 28 28 28 28 27 28 28 27 26 26 23 21 21 20 19 19 20 24 29 33 37 43 49 58 72 88 97 98 97 97 97 98 98 97 98 99 98
59 55 54 55 56 55 50 47 48 44 39 40 43 41 36 31 26 21 17 13 12 13 12 11 12 13 13 15 15 15 16 16 16 17 18 18 19 20 22 26 28 29 29 29 28 28 30 30 29 29 29 29 29 29 30 28 27 26 24 23 22 20 19 18 20 24 28 30 32 36 42 48 58 72 87 95 96 97 96 96 97 96 96 99 98
57 55 56 55 54 52 47 43 43 43 41 43 43 39 33 27 23 21 19 15 14 16 16 14 14 15 14 15 16 16 16 16 16 17 18 18 19 21 23 26 29 30 30 30 29 29 30 31 31 30 31 31 31 31 31 30 29 27 26 24 23 20 18 17 19 23 26 28 30 31 35 40 47 57 72 84 91 94 95 95 95 94 93 97 100
56 55 57 55 52 50 45 40 41 45 45 44 42 37 33 29 26 24 22 19 20 22 21 19 19 20 19 18 17 16 16 16 17 17 17 18 19 21 24 27 29 30 30 30 31 31 31 32 32 32 32 32 32 33 33 32 31 29 28 27 24 20 18 17 18 22 25 27 29 29 30 33 38 45 57 70 79 87 92 93 95 95 93 92 95
56 56 58 56 50 45 43 42 45 47 44 41 39 36 32 28 25 24 23 22 22 22 21 21 23 25 24 22 20 20 20 19 18 18 19 19 19 21 24 28 29 30 30 31 32 32 33 33 32 33 33 33 33 34 35 34 33 31 30 29 26 21 19 18 17 19 23 26 28 28 28 29 32 36 44 54 65 74 82 87 91 94 95 92 91
58 57 58 54 45 42 46 50 48 43 40 39 37 33 29 25 24 23 22 22 22 21 22 23 24 25 25 23 22 24 25 23 21 21 22 22 21 22 25 28 29 29 30 31 32 33 34 34 33 33 34 33 32 33 35 36 35 33 31 30 28 23 21 20 18 17 20 24 27 28 28 28 29 31 34 41 50 60 69 76 82 87 91 92 92
59 57 55 50 45 47 52 51 44 40 40 39 35 30 26 24 23 22 20 21 21 21 21 23 24 24 25 24 24 26 27 25 24 24 25 26 25 25 26 27 28 29 29 31 33 33 34 35 34 34 34 33 32 32 34 36 37 36 34 32 30 26 23 22 20 18 18 21 24 27 28 28 28 29 30 32 38 46 54 63 71 77 82 87 90
60 57 52 50 50 52 50 45 41 41 40 37 32 29 27 24 22 21 20 21 22 22 22 22 22 23 24 25 26 27 27 25 24 24 25 26 26 26 26 27 28 28 29 31 32 33 34 35 35 34 33 33 32 32 34 35 37 38 37 35 32 29 25 23 22 20 19 19 21 25 28 28 27 28 29 29 31 36 41 48 56 64 70 76 83
59 57 55 54 54 52 45 42 42 41 38 34 32 30 26 23 21 21 21 21 22 23 23 23 22 23 24 24 25 26 25 24 23 22 21 23 25 25 26 27 28 29 29 30 31 32 34 35 35 34 33 33 33 33 34 35 37 39 39 37 35 32 28 25 24 23 22 20 19 21 25 28 27 27 28 28 28 31 34 37 42 49 56 63 69
57 57 56 54 52 48 43 41 42 40 36 34 32 28 24 22 21 21 21 22 22 23 23 24 24 24 24 23 23 24 24 23 22 19 18 21 24 26 26 27 28 28 29 30 31 32 33 34 35 34 33 34 35 34 34 36 38 40 40 39 38 35 32 28 26 24 23 22 21 19 21 24 25 27 28 28 28 28 30 32 34 38 43 49 54
57 55 55 53 48 44 42 41 40 38 36 33 29 25 23 22 21 22 22 22 23 22 23 23 24 23 23 23 23 22 22 22 22 20 17 18 22 24 25 26 27 27 28 30 30 31 31 32 33 33 33 35 36 36 36 36 38 40 42 41 39 37 35 31 28 26 25 24 23 22 21 21 22 25 27 28 27 27 28 29 31 32 35 38 41
57 56 54 50 45 42 41 41 40 37 35 31 26 23 22 21 22 22 22 22 22 23 23 23 23 22 22 22 22 22 22 22 22 20 18 17 20 22 24 25 26 26 27 29 30 30 30 30 30 31 33 35 36 37 37 37 37 40 42 42 41 39 37 34 31 29 27 25 24 23 22 21 21 23 26 27 27 26 26 27 28 30 31 33 34
60 58 53 47 43 41 42 42 40 36 33 29 24 22 21 21 22 23 22 22 23 23 22 22 22 21 21 21 21 21 21 21 21 21 20 19 20 23 25 24 24 25 26 28 29 29 29 29 29 29 31 33 36 37 38 38 38 39 41 42 42 41 39 37 35 32 30 28 26 24 23 23 22 22 23 25 26 27 26 26 27 27 29 30 31
61 56 49 44 42 42 41 40 38 34 31 27 24 22 22 22 22 22 23 23 23 23 23 23 22 21 20 20 20 21 21 21 21 21 22 22 22 23 23 22 22 23 25 26 28 29 29 28 27 28 29 31 33 36 38 39 40 40 41 42 43 42 41 40 38 36 33 32 29 27 25 25 23 22 22 24 26 27 27 27 26 26 27 28 30
58 51 45 43 43 42 39 38 35 32 29 26 23 22 22 23 22 22 23 23 23 23 22 22 22 21 21 20 20 20 20 20 21 21 22 22 21 21 21 21 21 22 24 24 25 27 27 26 26 26 28 30 31 33 36 38 40 40 41 42 42 42 42 42 41 39 37 36 33 31 29 27 26 24 23 23 25 27 28 28 27 26 25 27 28
52 45 43 43 42 41 39 36 33 30 27 24 22 22 22 22 22 22 22 22 22 22 21 21 21 21 21 20 21 20 20 20 20 20 20 20 20 20 20 20 20 21 22 23 24 25 25 24 24 25 26 27 29 31 33 36 39 40 42 42 43 42 42 42 42 42 41 39 38 35 33 31 29 27 26 24 24 25 27 29 29 27 26 26 27
45 40 41 42 41 40 38 35 31 29 26 23 21 21 21 22 22 22 22 22 22 21 21 21 21 21 21 20 20 20 19 19 19 19 19 19 20 19 19 19 19 19 20 22 23 25 25 26 26 26 26 26 27 28 30 33 36 38 41 42 42 42 42 43 43 43 42 42 41 40 38 35 33 31 29 27 25 24 25 29 31 30 28 27 27
41 37 39 41 40 39 37 33 29 27 24 22 22 22 21 22 22 22 22 22 22 21 21 21 21 21 21 20 19 19 19 18 19 19 19 19 19 19 19 19 19 18 19 20 21 23 25 26 26 27 28 29 28 28 28 29 32 35 39 41 42 43 43 43 43 43 42 43 43 43 42 41 38 36 33 31 29 27 26 27 31 33 32 29 28
41 38 40 41 39 38 35 32 28 25 24 22 22 22 21 21 22 22 22 22 22 21 21 21 20 20 20 19 19 18 18 18 18 18 18 18 18 19 19 19 19 19 20 20 20 21 23 25 26 27 28 29 30 30 29 29 29 31 35 39 42 44 44 44 44 43 42 43 44 44 44 44 43 41 38 36 35 32 29 28 29 32 34 33 31
44 42 42 41 38 36 33 30 27 25 24 22 22 21 21 21 22 22 23 22 22 21 21 20 19 19 19 18 18 18 18 18 18 18 18 19 19 19 20 21 23 24 25 23 22 21 23 24 26 27 28 28 29 29 29 29 29 29 31 35 39 42 45 45 44 44 43 43 43 45 45 46 46 45 43 41 41 40 37 33 31 31 33 35 34